Telluride, CO

11:57 AM MDT on October 19, 2019 (GMT -0600)
Telluride Regional

Weather History for KTEX - July, 2019

Change the Weather History Date:

Sunday, July 21, 2019

  Actual Average Record
Temperature  
Mean Temperature 66 °F -  
Max Temperature 80 °F 71 °F 84 °F (2005)
Min Temperature 51 °F 49 °F 44 °F (2002)
Growing Degree Days 16 (Base 50)    
Moisture  
Dew Point 27 °F    
Average Humidity 25    
Maximum Humidity 41    
Minimum Humidity 12    
Precipitation  
Precipitation 0.00 in - - ()
Sea Level Pressure  
Sea Level Pressure 30.46 in    
Wind  
Wind Speed 6 mph (South)    
Max Wind Speed 16 mph    
Max Gust Speed 22 mph    
Visibility 10 miles    
Events      
Averages and records for this station are not official NWS values.
T = Trace of Precipitation, MM = Missing Value Source: NWS Daily Summary

Daily Weather History Graph

Daily Weather History Graph

Search for Another Location

Airport or City:

Astronomy

Jul. 21, 2019 Rise Set
Actual Time 6:05 AM MDT 8:30 PM MDT
Civil Twilight 5:35 AM MDT 9:00 PM MDT
Nautical Twilight 4:58 AM MDT 9:37 PM MDT
Astronomical Twilight 4:17 AM MDT 10:18 PM MDT
Moon 11:30 PM MDT (7/21) 10:25 AM MDT (7/21)
Length of Visible Light 15h 24m
Length of Day
14h 24m
Waning Gibbous, 80% of the Moon is Illuminated
Jul 21
Waning Gibbous
Jul 24
Last Quarter
Jul 31
New
Aug 7
First Quarter
Aug 15
Full

Hourly Weather History & Observations

Time (MDT) Temp. Dew Point Humidity Pressure Visibility Wind Dir Wind Speed Gust Speed Precip Events Conditions
12:15 AM 57.2 °F 33.8 °F 41% 30.41 in 10.0 mi SE 8.1 mph - N/A   Clear
12:35 AM 57.2 °F 32.0 °F 38% 30.41 in 10.0 mi SE 5.8 mph - N/A   Clear
12:55 AM 57.2 °F 32.0 °F 38% 30.41 in 10.0 mi SE 6.9 mph - N/A   Clear
1:15 AM 55.4 °F 32.0 °F 41% 30.42 in 10.0 mi SE 5.8 mph - N/A   Clear
1:35 AM 55.4 °F 32.0 °F 41% 30.42 in 10.0 mi ESE 4.6 mph - N/A   Clear
1:55 AM 55.4 °F 32.0 °F 41% 30.42 in 10.0 mi SE 8.1 mph - N/A   Clear
2:15 AM 55.4 °F 32.0 °F 41% 30.42 in 10.0 mi SE 6.9 mph - N/A   Clear
2:35 AM 53.6 °F 30.2 °F 41% 30.43 in 10.0 mi Calm Calm - N/A   Clear
2:55 AM 55.4 °F 30.2 °F 38% 30.43 in 10.0 mi SSE 6.9 mph - N/A   Clear
3:15 AM 53.6 °F 30.2 °F 41% 30.43 in 10.0 mi SE 5.8 mph - N/A   Clear
3:35 AM 53.6 °F 28.4 °F 38% 30.43 in 10.0 mi SE 5.8 mph - N/A   Clear
3:55 AM 53.6 °F 28.4 °F 38% 30.43 in 10.0 mi SE 8.1 mph - N/A   Clear
4:15 AM 53.6 °F 28.4 °F 38% 30.43 in 10.0 mi SSE 8.1 mph - N/A   Clear
4:35 AM 53.6 °F 26.6 °F 35% 30.43 in 10.0 mi SE 5.8 mph - N/A   Clear
4:55 AM 53.6 °F 26.6 °F 35% 30.43 in 10.0 mi SE 6.9 mph - N/A   Clear
5:15 AM 51.8 °F 26.6 °F 38% 30.43 in 10.0 mi SE 6.9 mph - N/A   Clear
5:35 AM 51.8 °F 26.6 °F 38% 30.44 in 10.0 mi Calm Calm - N/A   Clear
5:55 AM 51.8 °F 26.6 °F 38% 30.44 in 10.0 mi SSE 5.8 mph - N/A   Clear
6:15 AM 51.8 °F 26.6 °F 38% 30.44 in 10.0 mi SSE 6.9 mph - N/A   Clear
6:35 AM 51.8 °F 26.6 °F 38% 30.45 in 10.0 mi SE 6.9 mph - N/A   Clear
6:55 AM 51.8 °F 26.6 °F 38% 30.45 in 10.0 mi SE 6.9 mph - N/A   Clear
7:15 AM 53.6 °F 26.6 °F 35% 30.46 in 10.0 mi Calm Calm - N/A   Clear
7:35 AM 55.4 °F 28.4 °F 36% 30.46 in 10.0 mi ESE 4.6 mph - N/A   Clear
7:55 AM 57.2 °F 30.2 °F 36% 30.47 in 10.0 mi Calm Calm - N/A   Clear
8:15 AM 59.0 °F 30.2 °F 34% 30.48 in 10.0 mi Calm Calm - N/A   Clear
8:35 AM 60.8 °F 30.2 °F 31% 30.48 in 10.0 mi Calm Calm - N/A   Clear
8:55 AM 62.6 °F 32.0 °F 32% 30.48 in 10.0 mi Calm Calm - N/A   Clear
9:15 AM 64.4 °F 32.0 °F 30% 30.48 in 10.0 mi Calm Calm - N/A   Clear
9:35 AM 68.0 °F 30.2 °F 24% 30.49 in 10.0 mi SE 3.5 mph - N/A   Clear
9:55 AM 69.8 °F 32.0 °F 25% 30.49 in 10.0 mi Calm Calm - N/A   Clear
10:15 AM 69.8 °F 33.8 °F 27% 30.49 in 10.0 mi Calm Calm - N/A   Clear
10:35 AM 71.6 °F 32.0 °F 23% 30.49 in 10.0 mi Calm Calm - N/A   Clear
10:55 AM 71.6 °F 23.0 °F 16% 30.49 in 10.0 mi Calm Calm - N/A   Clear
11:15 AM 73.4 °F 19.4 °F 13% 30.49 in 10.0 mi Calm Calm - N/A   Clear
11:35 AM 75.2 °F 19.4 °F 12% 30.49 in 10.0 mi West 5.8 mph - N/A   Clear
11:55 AM 77.0 °F 21.2 °F 12% 30.49 in 10.0 mi WNW 3.5 mph - N/A   Clear
12:15 PM 77.0 °F 21.2 °F 12% 30.49 in 10.0 mi WSW 3.5 mph - N/A   Clear
12:35 PM 78.8 °F 21.2 °F 12% 30.49 in 10.0 mi West 6.9 mph - N/A   Clear
12:55 PM 77.0 °F 21.2 °F 12% 30.49 in 10.0 mi SSE 3.5 mph - N/A   Clear
1:15 PM 78.8 °F 23.0 °F 13% 30.49 in 10.0 mi West 5.8 mph - N/A   Clear
1:35 PM 77.0 °F 21.2 °F 12% 30.49 in 10.0 mi Calm Calm - N/A   Clear
1:55 PM 78.8 °F 23.0 °F 13% 30.48 in 10.0 mi WNW 9.2 mph 16.1 mph N/A   Clear
2:15 PM 78.8 °F 21.2 °F 12% 30.48 in 10.0 mi WSW 6.9 mph - N/A   Clear
2:35 PM 78.8 °F 23.0 °F 13% 30.47 in 10.0 mi SW 6.9 mph - N/A   Clear
2:55 PM 78.8 °F 23.0 °F 13% 30.47 in 10.0 mi West 13.8 mph 21.9 mph N/A   Clear
3:10 PM 78.8 °F 23.0 °F 13% 30.47 in 10.0 mi SSW 3.5 mph - N/A   Clear
3:35 PM 80.6 °F 23.0 °F 12% 30.46 in 10.0 mi SW 8.1 mph 19.6 mph N/A   Clear
3:55 PM 80.6 °F 23.0 °F 12% 30.46 in 10.0 mi West 16.1 mph 19.6 mph N/A   Clear
4:15 PM 80.6 °F 24.8 °F 13% 30.46 in 10.0 mi WNW 5.8 mph - N/A   Clear
4:35 PM 78.8 °F 23.0 °F 13% 30.45 in 10.0 mi West 10.4 mph - N/A   Clear
4:55 PM 80.6 °F 23.0 °F 12% 30.45 in 10.0 mi West 11.5 mph 19.6 mph N/A   Clear
5:15 PM 80.6 °F 23.0 °F 12% 30.45 in 10.0 mi West 16.1 mph 21.9 mph N/A   Clear
5:35 PM 78.8 °F 23.0 °F 13% 30.45 in 10.0 mi WNW 6.9 mph 17.3 mph N/A   Scattered Clouds
5:55 PM 78.8 °F 21.2 °F 12% 30.44 in 10.0 mi West 13.8 mph 19.6 mph N/A   Clear
6:15 PM 78.8 °F 23.0 °F 13% 30.44 in 10.0 mi West 9.2 mph - N/A   Clear
6:35 PM 78.8 °F 21.2 °F 12% 30.44 in 10.0 mi West 9.2 mph - N/A   Clear
6:55 PM 78.8 °F 21.2 °F 12% 30.44 in 10.0 mi West 11.5 mph - N/A   Clear
7:15 PM 77.0 °F 21.2 °F 12% 30.44 in 10.0 mi West 8.1 mph 16.1 mph N/A   Clear
7:35 PM 77.0 °F 23.0 °F 13% 30.45 in 10.0 mi NW 3.5 mph - N/A   Clear
7:55 PM 77.0 °F 21.2 °F 12% 30.45 in 10.0 mi Calm Calm - N/A   Clear
8:15 PM 73.4 °F 21.2 °F 14% 30.45 in 10.0 mi NNW 3.5 mph - N/A   Clear
8:35 PM 71.6 °F 23.0 °F 16% 30.45 in 10.0 mi Calm Calm - N/A   Clear
9:15 PM 68.0 °F 30.2 °F 24% 30.47 in 10.0 mi SE 9.2 mph - N/A   Clear
9:35 PM 66.2 °F 30.2 °F 26% 30.48 in 10.0 mi SE 8.1 mph - N/A   Clear
9:55 PM 64.4 °F 30.2 °F 28% 30.48 in 10.0 mi SE 9.2 mph - N/A   Clear
10:15 PM 64.4 °F 30.2 °F 28% 30.49 in 10.0 mi SE 8.1 mph - N/A   Clear
10:35 PM 64.4 °F 30.2 °F 28% 30.49 in 10.0 mi ESE 5.8 mph - N/A   Clear
10:55 PM 62.6 °F 30.2 °F 30% 30.49 in 10.0 mi SE 6.9 mph - N/A   Clear
11:15 PM 62.6 °F 30.2 °F 30% 30.49 in 10.0 mi ESE 5.8 mph - N/A   Clear
11:35 PM 60.8 °F 30.2 °F 31% 30.49 in 10.0 mi SE 5.8 mph - N/A   Clear
11:55 PM 60.8 °F 30.2 °F 31% 30.50 in 10.0 mi SE 6.9 mph - N/A   Clear